EN

Hourly Weather Almegijar

Today, 16 January, Saturday

Time Temperature Precipitation Wind Pressure Humidity
00:00 +5°C° 0 mm 2 mps 685 mmHg 30%
01:00 +5°C° 0 mm 2 mps 685 mmHg 31%
02:00 +4°C° 0 mm 3 mps 685 mmHg 31%
03:00 +4°C° 0 mm 3 mps 685 mmHg 31%
04:00 +4°C° 0 mm 3 mps 685 mmHg 33%
05:00 +4°C° 0 mm 3 mps 685 mmHg 35%
06:00 +4°C° 0 mm 3 mps 685 mmHg 36%
07:00 +6°C° 0 mm 2 mps 685 mmHg 38%
08:00 +7°C° 0 mm 2 mps 686 mmHg 41%
09:00 +8°C° 0 mm 2 mps 686 mmHg 44%
10:00 +9°C° 0 mm 2 mps 687 mmHg 44%
11:00 +10°C° 0 mm 2 mps 687 mmHg 43%
12:00 +12°C° 0 mm 2 mps 687 mmHg 42%
13:00 +12°C° 0 mm 2 mps 687 mmHg 46%
14:00 +12°C° 0 mm 2 mps 687 mmHg 49%
15:00 +12°C° 0 mm 2 mps 687 mmHg 53%
16:00 +9°C° 0 mm 2 mps 687 mmHg 55%
17:00 +7°C° 0 mm 2 mps 687 mmHg 57%
18:00 +6°C° 0 mm 2 mps 686 mmHg 60%
19:00 +5°C° 0 mm 2 mps 687 mmHg 56%
20:00 +5°C° 0 mm 2 mps 687 mmHg 53%
21:00 +6°C° 0 mm 1 mps 687 mmHg 50%
22:00 +6°C° 0 mm 1 mps 688 mmHg 48%
23:00 +6°C° 0 mm 1 mps 688 mmHg 46%

Tomorrow, 17 January, Sunday

Time Temperature Precipitation Wind Pressure Humidity
00:00 +6°C° 0 mm 1 mps 688 mmHg 45%
01:00 +6°C° 0 mm 1 mps 687 mmHg 43%
02:00 +6°C° 0 mm 1 mps 687 mmHg 41%
03:00 +6°C° 0 mm 1 mps 687 mmHg 39%
04:00 +6°C° 0 mm 1 mps 687 mmHg 38%
05:00 +6°C° 0 mm 1 mps 687 mmHg 37%
06:00 +6°C° 0 mm 1 mps 687 mmHg 36%
07:00 +7°C° 0 mm 1 mps 687 mmHg 38%
08:00 +9°C° 0 mm 1 mps 688 mmHg 39%
09:00 +10°C° 0 mm 1 mps 688 mmHg 41%
10:00 +11°C° 0 mm 1 mps 688 mmHg 40%
11:00 +13°C° 0 mm 1 mps 688 mmHg 39%
12:00 +14°C° 0 mm 1 mps 688 mmHg 39%
13:00 +14°C° 0 mm 1 mps 688 mmHg 40%
14:00 +14°C° 0 mm 1 mps 687 mmHg 42%
15:00 +13°C° 0 mm 1 mps 687 mmHg 44%
16:00 +12°C° 0 mm 2 mps 687 mmHg 44%
17:00 +9°C° 0 mm 2 mps 686 mmHg 45%
18:00 +7°C° 0 mm 2 mps 686 mmHg 45%
19:00 +7°C° 0 mm 2 mps 686 mmHg 43%
20:00 +8°C° 0 mm 1 mps 686 mmHg 40%
21:00 +8°C° 0 mm 1 mps 686 mmHg 38%
22:00 +8°C° 0 mm 1 mps 686 mmHg 38%
23:00 +7°C° 0 mm 1 mps 686 mmHg 39%

Day after tomorrow, 18 January, Monday

Time Temperature Precipitation Wind Pressure Humidity
00:00 +7°C° 0 mm 1 mps 686 mmHg 39%
01:00 +7°C° 0 mm 1 mps 686 mmHg 39%
02:00 +7°C° 0 mm 1 mps 686 mmHg 39%
03:00 +7°C° 0 mm 1 mps 686 mmHg 40%
04:00 +7°C° 0 mm 1 mps 686 mmHg 40%
05:00 +5°C° 0 mm 0 mps 685 mmHg 41%
06:00 +5°C° 0 mm 0 mps 685 mmHg 41%
07:00 +7°C° 0 mm 0 mps 686 mmHg 43%
08:00 +8°C° 0 mm 0 mps 686 mmHg 46%
09:00 +9°C° 0 mm 0 mps 687 mmHg 48%
10:00 +11°C° 0 mm 1 mps 687 mmHg 47%
11:00 +12°C° 0 mm 1 mps 687 mmHg 46%
12:00 +13°C° 0 mm 1 mps 688 mmHg 45%
13:00 +13°C° 0 mm 1 mps 687 mmHg 47%
14:00 +12°C° 0 mm 1 mps 687 mmHg 49%
15:00 +12°C° 0 mm 1 mps 686 mmHg 51%
16:00 +11°C° 0 mm 1 mps 686 mmHg 57%
17:00 +9°C° 0 mm 1 mps 686 mmHg 63%
18:00 +7°C° 0 mm 1 mps 686 mmHg 69%
19:00 +7°C° 0 mm 1 mps 686 mmHg 68%
20:00 +7°C° 0 mm 1 mps 686 mmHg 68%
21:00 +6°C° 0 mm 1 mps 686 mmHg 67%
22:00 +6°C° 0 mm 1 mps 686 mmHg 65%
23:00 +5°C° 0 mm 0 mps 686 mmHg 62%

19 January, Tuesday

Time Temperature Precipitation Wind Pressure Humidity
00:00 +5°C° 0 mm 0 mps 686 mmHg 60%
01:00 +5°C° 0 mm 0 mps 686 mmHg 58%
02:00 +4°C° 0 mm 0 mps 685 mmHg 55%
03:00 +4°C° 0 mm 0 mps 685 mmHg 53%
04:00 +4°C° 0 mm 0 mps 685 mmHg 53%
05:00 +4°C° 0 mm 0 mps 685 mmHg 53%
06:00 +4°C° 0 mm 0 mps 685 mmHg 53%
07:00 +6°C° 0 mm 1 mps 685 mmHg 51%
08:00 +8°C° 0 mm 1 mps 685 mmHg 49%
09:00 +9°C° 0 mm 1 mps 686 mmHg 48%
10:00 +10°C° 0 mm 1 mps 686 mmHg 46%
11:00 +11°C° 0 mm 1 mps 686 mmHg 45%
12:00 +12°C° 0 mm 1 mps 686 mmHg 43%
13:00 +12°C° 0 mm 1 mps 685 mmHg 44%
14:00 +12°C° 0 mm 2 mps 685 mmHg 46%
15:00 +10°C° 0 mm 2 mps 684 mmHg 47%
16:00 +9°C° 0 mm 2 mps 684 mmHg 50%
17:00 +7°C° 0 mm 2 mps 683 mmHg 53%
18:00 +7°C° 0 mm 1 mps 683 mmHg 56%
19:00 +7°C° 0 mm 1 mps 683 mmHg 52%
20:00 +6°C° 0 mm 2 mps 683 mmHg 48%
21:00 +6°C° 0 mm 2 mps 683 mmHg 44%
22:00 +6°C° 0 mm 2 mps 683 mmHg 43%
23:00 +6°C° 0 mm 2 mps 682 mmHg 43%

20 January, Wednesday

Time Temperature Precipitation Wind Pressure Humidity
00:00 +5°C° 0 mm 3 mps 682 mmHg 42%
01:00 +4°C° 0 mm 3 mps 682 mmHg 41%
02:00 +4°C° 0 mm 3 mps 681 mmHg 41%
03:00 +4°C° 0 mm 3 mps 681 mmHg 40%
04:00 +4°C° 0 mm 3 mps 681 mmHg 40%
05:00 +4°C° 0 mm 3 mps 680 mmHg 41%
06:00 +4°C° 0 mm 3 mps 680 mmHg 41%
07:00 +5°C° 0 mm 3 mps 680 mmHg 44%
08:00 +6°C° 0 mm 4 mps 680 mmHg 47%
09:00 +7°C° 0 mm 4 mps 680 mmHg 50%
10:00 +7°C° 0 mm 4 mps 680 mmHg 56%
11:00 +8°C° 0 mm 5 mps 679 mmHg 61%
12:00 +8°C° 0 mm 5 mps 679 mmHg 67%
13:00 +7°C° 1 mm 5 mps 679 mmHg 76%
14:00 +7°C° 1 mm 5 mps 678 mmHg 85%
15:00 +6°C° 1 mm 5 mps 677 mmHg 94%
16:00 +6°C° 1.4 mm 5 mps 678 mmHg 94%
17:00 +6°C° 1.4 mm 5 mps 678 mmHg 94%
18:00 +5°C° 1.4 mm 6 mps 678 mmHg 94%
19:00 +6°C° 0.3 mm 5 mps 678 mmHg 93%
20:00 +6°C° 0.3 mm 5 mps 679 mmHg 92%
21:00 +5°C° 0.3 mm 4 mps 679 mmHg 92%
22:00 +5°C° 0.1 mm 4 mps 679 mmHg 91%
23:00 +5°C° 0.1 mm 4 mps 680 mmHg 90%

21 January, Thursday

Time Temperature Precipitation Wind Pressure Humidity
00:00 +6°C° 0.1 mm 4 mps 680 mmHg 88%
01:00 +6°C° 0 mm 4 mps 680 mmHg 88%
02:00 +6°C° 0 mm 4 mps 680 mmHg 88%
03:00 +6°C° 0 mm 4 mps 681 mmHg 88%
04:00 +5°C° 0 mm 4 mps 681 mmHg 87%
05:00 +5°C° 0 mm 4 mps 681 mmHg 86%
06:00 +5°C° 0 mm 4 mps 681 mmHg 85%
07:00 +6°C° 0 mm 4 mps 681 mmHg 82%
08:00 +6°C° 0 mm 4 mps 682 mmHg 79%
09:00 +7°C° 0 mm 4 mps 682 mmHg 77%
10:00 +8°C° 0 mm 4 mps 682 mmHg 76%
11:00 +8°C° 0 mm 4 mps 682 mmHg 74%
12:00 +9°C° 0 mm 5 mps 683 mmHg 73%
13:00 +9°C° 0 mm 5 mps 682 mmHg 73%
14:00 +9°C° 0 mm 5 mps 682 mmHg 73%
15:00 +10°C° 0 mm 5 mps 682 mmHg 73%
16:00 +8°C° 0 mm 5 mps 681 mmHg 77%
17:00 +7°C° 0 mm 5 mps 681 mmHg 81%
18:00 +6°C° 0 mm 5 mps 681 mmHg 85%
19:00 +6°C° 0 mm 5 mps 681 mmHg 82%
20:00 +6°C° 0 mm 5 mps 681 mmHg 80%
21:00 +6°C° 0 mm 5 mps 682 mmHg 77%
22:00 +6°C° 0 mm 5 mps 682 mmHg 79%
23:00 +7°C° 0 mm 5 mps 681 mmHg 81%
Show more